This demonstration page uses our WeatherBlox Daily Observations layout. Learn more.

Hourly Observations for August 26, 2015

Temp ( °F °C ) Dew Point ( °F °C ) Humidity (%) Winds ( mph kmh ) Pressure ( in mb ) Visibility ( mi km ) Precip ( " mm )
12:15 am 00:15 Clear 61 15.9 56 13.5 86 86 SE 6 9 30.09 1019 10 16.0934 0 0
12:35 am 00:35 Clear 60 15.8 56 13.5 86 86 SE 5 7 30.09 1019 10 16.0934 0 0
12:55 am 00:55 Clear 60 15.5 56 13.3 87 87 SE 3 6 30.09 1019 10 16.0934 0 0
1:15 am 01:15 Clear 60 15.5 55 13 85 85 Calm 30.09 1019 10 16.0934 0 0
1:35 am 01:35 Clear 59 15 55 12.6 86 86 SE 5 7 30.09 1019 10 16.0934 0 0
1:55 am 01:55 Clear 59 14.8 55 12.5 86 86 Calm 30.09 1019 10 16.0934 0 0
2:15 am 02:15 Clear 58 14.5 54 12.1 86 86 SE 3 6 30.09 1019 10 16.0934 0 0
2:35 am 02:35 Clear 58 14.5 53 11.9 85 85 SSE 3 6 30.09 1019 10 16.0934 0 0
2:55 am 02:55 Clear 58 14.5 53 11.8 84 84 SSE 3 6 30.09 1019 10 16.0934 0 0
3:15 am 03:15 Clear 58 14.5 53 11.9 85 85 SSE 3 6 30.09 1019 10 16.0934 0 0
3:35 am 03:35 Clear 58 14.5 53 11.7 83 83 SSE 3 6 30.09 1019 10 16.0934 0 0
3:55 am 03:55 Clear 58 14.6 53 11.6 82 82 SSE 5 7 30.09 1019 10 16.0934 0 0
4:15 am 04:15 Clear 58 14.5 53 11.6 83 83 S 5 7 30.09 1019 10 16.0934 0 0
4:35 am 04:35 Clear 57 13.9 53 11.4 85 85 SSE 3 6 30.09 1019 10 16.0934 0 0
4:55 am 04:55 Clear 55 13 52 11 88 88 SSE 3 6 30.12 1020 10 16.0934 0 0
5:15 am 05:15 Clear 57 13.8 52 11 83 83 Calm 30.09 1019 10 16.0934 0 0
5:35 am 05:35 Clear 57 14 52 11.3 84 84 Calm 30.09 1019 10 16.0934 0 0
5:55 am 05:55 Clear 56 13.3 52 10.9 86 86 SSE 3 6 30.12 1020 10 16.0934 0 0
6:15 am 06:15 Clear 56 13.6 52 11.2 86 86 SSE 3 6 30.09 1019 10 16.0934 0 0
6:35 am 06:35 Clear 56 13.5 52 11.2 86 86 SSE 3 6 30.09 1019 10 16.0934 0 0
6:55 am 06:55 Clear 56 13.1 51 10.8 86 86 Calm 30.12 1020 10 16.0934 0 0
7:15 am 07:15 Sunny 56 13.5 52 11 85 85 Calm 30.09 1019 10 16.0934 0 0
7:35 am 07:35 Sunny 57 13.7 52 11.2 85 85 Calm 30.09 1019 10 16.0934 0 0
7:55 am 07:55 Sunny 58 14.2 53 11.7 85 85 S 3 6 30.09 1019 10 16.0934 0 0
8:15 am 08:15 Sunny 59 14.8 55 12.5 86 86 Calm 30.09 1019 10 16.0934 0 0
8:35 am 08:35 Sunny 61 16.3 56 13.2 82 82 SSE 3 6 30.09 1019 10 16.0934 0 0
8:55 am 08:55 Sunny 64 17.7 58 14.2 80 80 SSE 3 6 30.06 1018 10 16.0934 0 0
9:15 am 09:15 Sunny 66 18.7 58 14.7 78 78 SE 5 7 30.06 1018 10 16.0934 0 0
9:35 am 09:35 Sunny 68 20.2 60 15.5 75 75 SSE 5 7 30.06 1018 10 16.0934 0 0
9:55 am 09:55 Sunny 70 21.3 61 16.1 72 72 S 7 11 30.03 1017 10 16.0934 0 0
10:15 am 10:15 Sunny 74 23.4 64 17.5 70 70 S 8 13 30.03 1017 10 16.0934 0 0
10:35 am 10:35 Sunny 75 24.1 65 18.2 70 70 S 9 15 30.03 1017 10 16.0934 0 0
10:55 am 10:55 Sunny 76 24.6 65 18.3 68 68 S 10 17 30 1016 10 16.0934 0 0
11:15 am 11:15 Sunny 78 25.6 66 18.7 66 66 SSE 9 15 30 1016 10 16.0934 0 0
11:35 am 11:35 Sunny 80 26.4 66 19 64 64 SSE 12 19 30 1016 10 16.0934 0 0
11:55 am 11:55 Sunny 80 26.7 67 19.3 64 64 SSE 12 19 30 1016 10 16.0934 0 0
12:15 pm 12:15 Sunny 82 27.5 67 19.5 62 62 SSE 9 15 30 1016 10 16.0934 0 0
12:35 pm 12:35 Sunny 82 28 67 19.6 60 60 SSE 16 26 30 1016 10 16.0934 0 0
12:55 pm 12:55 Sunny 83 28.3 67 19.5 59 59 SSE 15 24 30 1016 10 16.0934 0 0
1:15 pm 13:15 Sunny 84 28.7 67 19.7 58 58 SSE 15 24 29.97 1015 10 16.0934 0 0
1:35 pm 13:35 Sunny 84 28.7 67 19.7 58 58 SSE 14 22 29.97 1015 10 16.0934 0 0
1:55 pm 13:55 Sunny 85 29.6 67 19.6 55 55 S 16 26 29.94 1014 10 16.0934 0 0
2:15 pm 14:15 Sunny 86 30 68 20 55 55 SSE 18 30 29.94 1014 10 16.0934 0 0
2:35 pm 14:35 Sunny 86 30.1 67 19.5 53 53 SSE 13 20 29.94 1014 10 16.0934 0 0
2:55 pm 14:55 Sunny 86 30 66 19.1 52 52 SSE 15 24 29.94 1014 10 16.0934 0 0
3:15 pm 15:15 Sunny 88 30.9 66 19.1 49 49 SSE 14 22 29.94 1014 10 16.0934 0 0
3:35 pm 15:35 Sunny 88 31.1 67 19.3 49 49 SSE 14 22 29.91 1013 10 16.0934 0 0
3:55 pm 15:55 Sunny 89 31.5 67 19.5 49 49 SSE 12 19 29.88 1012 10 16.0934 0 0
4:15 pm 16:15 Sunny 89 31.6 67 19.6 49 49 SE 15 24 29.88 1012 10 16.0934 0 0
4:35 pm 16:35 Sunny 89 31.9 68 19.8 49 49 SSE 14 22 29.88 1012 10 16.0934 0 0
4:55 pm 16:55 Sunny 90 32.2 66 19.1 46 46 SSE 14 22 29.85 1011 10 16.0934 0 0
5:15 pm 17:15 Sunny 90 32 67 19.4 47 47 SSE 12 19 29.85 1011 10 16.0934 0 0
5:35 pm 17:35 Sunny 89 31.7 67 19.4 48 48 SE 12 19 29.85 1011 10 16.0934 0 0
5:55 pm 17:55 Sunny 89 31.7 67 19.5 48 48 SE 14 22 29.85 1011 10 16.0934 0 0
6:15 pm 18:15 Sunny 89 31.5 67 19.4 49 49 SE 16 26 29.85 1011 10 16.0934 0 0
6:35 pm 18:35 Sunny 88 31 67 19.7 51 51 SE 10 17 29.85 1011 10 16.0934 0 0
6:55 pm 18:55 Sunny 87 30.4 68 20 54 54 ESE 14 22 29.85 1011 10 16.0934 0 0
7:15 pm 19:15 Sunny 84 29.1 69 20.7 61 61 ESE 12 19 29.85 1011 10 16.0934 0 0
7:35 pm 19:35 Sunny 82 28 69 20.5 64 64 SE 10 17 29.85 1011 10 16.0934 0 0
7:55 pm 19:55 Sunny 81 27.2 69 20.6 67 67 SE 10 17 29.85 1011 10 16.0934 0 0
8:15 pm 20:15 Sunny 80 26.6 69 20.5 69 69 SE 9 15 29.85 1011 10 16.0934 0 0
8:35 pm 20:35 Clear 78 25.7 69 20.6 74 74 ESE 9 15 29.88 1012 10 16.0934 0 0
8:55 pm 20:55 Clear 78 25.5 69 20.7 75 75 ESE 10 17 29.88 1012 10 16.0934 0 0
9:15 pm 21:15 Clear 77 25 69 20.8 78 78 ESE 12 19 29.91 1013 10 16.0934 0 0
9:35 pm 21:35 Clear 77 24.8 69 20.8 79 79 ESE 12 19 29.91 1013 10 16.0934 0 0
9:55 pm 21:55 Clear 76 24.4 69 20.8 80 80 SE 10 17 29.91 1013 10 16.0934 0 0
10:15 pm 22:15 Clear 75 24.1 69 20.7 81 81 SE 10 17 29.91 1013 10 16.0934 0 0
10:35 pm 22:35 Clear 76 24.2 69 20.6 80 80 SE 12 19 29.91 1013 10 16.0934 0 0
10:55 pm 22:55 Clear 75 24 69 20.5 81 81 SE 10 17 29.91 1013 10 16.0934 0 0
11:15 pm 23:15 Clear 75 23.7 69 20.5 82 82 SE 9 15 29.91 1013 10 16.0934 0 0
11:35 pm 23:35 Clear 75 23.7 69 20.5 82 82 SE 10 17 29.88 1012 10 16.0934 0 0
11:55 pm 23:55 Clear 74 23.5 69 20.5 83 83 SE 12 19 29.88 1012 10 16.0934 0 0

Powered by AerisWeather